status,avgMeasuredTime,avgSpeed,extID,medianMeasuredTime,TIMESTAMP,vehicleCount,_id,REPORT_ID
OK,108,24,777,108,2014-08-01T07:55:00,4,20746501,185396
OK,133,20,777,133,2014-08-01T08:00:00,6,20746832,185396
OK,128,20,777,128,2014-08-01T08:05:00,3,20747281,185396
OK,130,20,777,130,2014-08-01T08:10:00,3,20747654,185396
OK,143,18,777,143,2014-08-01T08:15:00,2,20748103,185396
OK,55,48,777,55,2014-08-01T08:20:00,3,20748552,185396
OK,52,51,777,52,2014-08-01T08:25:00,4,20749001,185396
OK,172,15,777,172,2014-08-01T08:30:00,2,20749450,185396
OK,102,26,777,102,2014-08-01T08:35:00,2,20749899,185396
OK,57,46,777,57,2014-08-01T08:40:00,2,20750348,185396
OK,106,25,777,106,2014-08-01T08:45:00,2,20750797,185396
OK,158,16,777,158,2014-08-01T08:50:00,1,20751246,185396
OK,116,22,777,116,2014-08-01T08:55:00,2,20751695,185396
OK,116,22,777,116,2014-08-01T09:00:00,2,20752144,185396
OK,147,18,777,147,2014-08-01T09:05:00,5,20752593,185396
OK,147,18,777,147,2014-08-01T09:10:00,9,20753042,185396
OK,80,33,777,80,2014-08-01T09:15:00,5,20753491,185396
OK,140,19,777,140,2014-08-01T09:20:00,5,20753940,185396
OK,129,20,777,129,2014-08-01T09:25:00,5,20754389,185396
OK,137,19,777,137,2014-08-01T09:30:00,3,20754838,185396
OK,137,19,777,137,2014-08-01T09:35:00,3,20755287,185396
OK,94,28,777,94,2014-08-01T09:40:00,2,20755736,185396
OK,128,20,777,128,2014-08-01T09:45:00,3,20756185,185396
OK,93,28,777,93,2014-08-01T09:50:00,2,20756634,185396
OK,148,17,777,148,2014-08-01T09:55:00,1,20757083,185396
OK,148,17,777,148,2014-08-01T10:00:00,1,20757532,185396
OK,148,17,777,148,2014-08-01T10:05:00,0,20757981,185396
OK,161,16,777,161,2014-08-01T10:10:00,1,20758430,185396
OK,72,36,777,72,2014-08-01T10:15:00,3,20758879,185396
OK,54,49,777,54,2014-08-01T10:20:00,5,20759328,185396
OK,88,30,777,88,2014-08-01T10:25:00,4,20759777,185396
OK,143,18,777,143,2014-08-01T10:30:00,6,20760226,185396
OK,142,18,777,142,2014-08-01T10:35:00,5,20760675,185396
OK,144,18,777,144,2014-08-01T10:40:00,3,20761124,185396
OK,144,18,777,144,2014-08-01T10:45:00,5,20761573,185396
OK,158,16,777,158,2014-08-01T10:50:00,2,20762022,185396
OK,128,20,777,128,2014-08-01T10:55:00,0,20762471,185396
OK,142,18,777,142,2014-08-01T11:00:00,1,20762920,185396
OK,137,19,777,137,2014-08-01T11:05:00,2,20763369,185396
OK,133,20,777,133,2014-08-01T11:10:00,4,20763818,185396
OK,137,19,777,137,2014-08-01T11:15:00,2,20764266,185396
OK,128,20,777,128,2014-08-01T11:20:00,3,20764715,185396
OK,129,20,777,129,2014-08-01T11:25:00,4,20765164,185396
OK,138,19,777,138,2014-08-01T11:30:00,4,20765613,185396
OK,138,19,777,138,2014-08-01T11:35:00,6,20766062,185396
OK,144,18,777,144,2014-08-01T11:40:00,3,20766511,185396
OK,97,27,777,97,2014-08-01T11:45:00,3,20766960,185396
OK,114,23,777,114,2014-08-01T11:50:00,4,20767409,185396
OK,132,20,777,132,2014-08-01T11:55:00,1,20767858,185396
OK,139,19,777,139,2014-08-01T12:00:00,3,20768307,185396
OK,131,20,777,131,2014-08-01T12:05:00,6,20768756,185396
OK,149,17,777,149,2014-08-01T12:10:00,1,20769205,185396
OK,149,17,777,149,2014-08-01T12:15:00,1,20769654,185396
OK,133,20,777,133,2014-08-01T12:20:00,3,20770103,185396
OK,133,20,777,133,2014-08-01T12:25:00,3,20770552,185396
OK,133,20,777,133,2014-08-01T12:30:00,0,20771001,185396
OK,95,28,777,95,2014-08-01T12:35:00,1,20771450,185396
OK,138,19,777,138,2014-08-01T12:40:00,3,20771899,185396
OK,138,19,777,138,2014-08-01T12:45:00,3,20772348,185396
OK,131,20,777,131,2014-08-01T12:50:00,3,20772797,185396
OK,107,24,777,107,2014-08-01T12:55:00,2,20773246,185396
OK,59,45,777,59,2014-08-01T13:00:00,1,20773695,185396
OK,72,36,777,72,2014-08-01T13:05:00,2,20774144,185396
OK,107,24,777,107,2014-08-01T13:10:00,2,20774593,185396
OK,123,21,777,123,2014-08-01T13:15:00,2,20775042,185396
OK,145,18,777,145,2014-08-01T13:20:00,2,20775491,185396
OK,154,17,777,154,2014-08-01T13:25:00,2,20775940,185396
OK,135,19,777,135,2014-08-01T13:30:00,3,20776389,185396
OK,132,20,777,132,2014-08-01T13:35:00,4,20776838,185396
OK,132,20,777,132,2014-08-01T13:40:00,3,20777287,185396
OK,130,20,777,130,2014-08-01T13:45:00,1,20777736,185396
OK,135,19,777,135,2014-08-01T13:50:00,1,20778185,185396
OK,135,19,777,135,2014-08-01T13:55:00,1,20778634,185396
OK,133,20,777,133,2014-08-01T14:00:00,1,20779083,185396
OK,133,20,777,133,2014-08-01T14:05:00,3,20779532,185396
OK,90,29,777,90,2014-08-01T14:10:00,1,20779981,185396
OK,142,18,777,142,2014-08-01T14:15:00,1,20780430,185396
OK,133,20,777,133,2014-08-01T14:20:00,5,20780879,185396
OK,133,20,777,133,2014-08-01T14:25:00,5,20781328,185396
OK,130,20,777,130,2014-08-01T14:30:00,1,20781777,185396
OK,138,19,777,138,2014-08-01T14:35:00,3,20782226,185396
OK,133,20,777,133,2014-08-01T14:40:00,7,20782675,185396
OK,131,20,777,131,2014-08-01T14:45:00,6,20783124,185396
OK,147,18,777,147,2014-08-01T14:50:00,4,20783573,185396
OK,162,16,777,162,2014-08-01T14:55:00,4,20784022,185396
OK,145,18,777,145,2014-08-01T15:00:00,3,20784471,185396
OK,205,12,777,205,2014-08-01T15:05:00,2,20784920,185396
OK,266,10,777,266,2014-08-01T15:10:00,0,20785369,185396
OK,133,20,777,133,2014-08-01T15:15:00,1,20785818,185396
OK,100,26,777,100,2014-08-01T15:20:00,2,20786267,185396
OK,51,52,777,51,2014-08-01T15:25:00,3,20786716,185396
OK,70,38,777,70,2014-08-01T15:30:00,1,20787165,185396
OK,78,34,777,78,2014-08-01T15:35:00,1,20787614,185396
OK,78,34,777,78,2014-08-01T15:40:00,1,20788063,185396
OK,143,18,777,143,2014-08-01T15:45:00,1,20788512,185396
OK,98,27,777,98,2014-08-01T15:50:00,2,20788961,185396
OK,98,27,777,98,2014-08-01T15:55:00,2,20789410,185396
OK,45,59,777,45,2014-08-01T16:00:00,0,20789859,185396
OK,45,59,777,45,2014-08-01T16:05:00,0,20790308,185396
OK,147,18,777,147,2014-08-01T16:10:00,2,20790757,185396
OK,147,18,777,147,2014-08-01T16:15:00,2,20791206,185396
OK,147,18,777,147,2014-08-01T16:20:00,0,20791655,185396
OK,147,18,777,147,2014-08-01T16:25:00,0,20792104,185396
OK,56,47,777,56,2014-08-01T16:30:00,1,20792553,185396
OK,56,47,777,56,2014-08-01T16:35:00,1,20793002,185396
OK,56,47,777,56,2014-08-01T16:40:00,0,20793451,185396
OK,56,47,777,56,2014-08-01T16:45:00,0,20793900,185396
OK,56,47,777,56,2014-08-01T16:50:00,0,20794349,185396
OK,56,47,777,56,2014-08-01T16:55:00,0,20794798,185396
OK,49,54,777,49,2014-08-01T17:00:00,2,20795247,185396
OK,49,54,777,49,2014-08-01T17:05:00,2,20795696,185396
OK,49,54,777,49,2014-08-01T17:10:00,0,20796145,185396
OK,49,54,777,49,2014-08-01T17:15:00,0,20796594,185396
OK,49,54,777,49,2014-08-01T17:20:00,0,20797043,185396
OK,49,54,777,49,2014-08-01T17:25:00,0,20797492,185396
OK,49,54,777,49,2014-08-01T17:30:00,0,20797941,185396
OK,49,54,777,49,2014-08-01T17:35:00,0,20798390,185396
OK,138,19,777,138,2014-08-01T17:40:00,1,20798839,185396
OK,143,18,777,143,2014-08-01T17:45:00,2,20799288,185396
OK,149,17,777,149,2014-08-01T17:50:00,1,20799737,185396
OK,139,19,777,139,2014-08-01T17:55:00,1,20800186,185396
OK,139,19,777,139,2014-08-01T18:00:00,0,20800635,185396
OK,135,19,777,135,2014-08-01T18:05:00,2,20801084,185396
OK,135,19,777,135,2014-08-01T18:10:00,2,20801533,185396
OK,135,19,777,135,2014-08-01T18:15:00,0,20801982,185396
OK,135,19,777,135,2014-08-01T18:20:00,0,20802431,185396
OK,135,19,777,135,2014-08-01T18:25:00,0,20802880,185396
OK,135,19,777,135,2014-08-01T18:30:00,0,20803329,185396
OK,135,19,777,135,2014-08-01T18:35:00,0,20803778,185396
OK,135,19,777,135,2014-08-01T18:40:00,0,20804227,185396
OK,135,19,777,135,2014-08-01T18:45:00,0,20804676,185396
OK,135,19,777,135,2014-08-01T18:50:00,0,20805125,185396
OK,135,19,777,135,2014-08-01T18:55:00,0,20805574,185396
OK,135,19,777,135,2014-08-01T19:00:00,0,20806023,185396
OK,135,19,777,135,2014-08-01T19:05:00,0,20806472,185396
OK,135,19,777,135,2014-08-01T19:10:00,0,20806921,185396
OK,149,17,777,149,2014-08-01T19:15:00,1,20807370,185396
OK,149,17,777,149,2014-08-01T19:20:00,0,20807819,185396
OK,149,17,777,149,2014-08-01T19:25:00,0,20808268,185396
OK,149,17,777,149,2014-08-01T19:30:00,0,20808717,185396
OK,149,17,777,149,2014-08-01T19:35:00,0,20809166,185396
OK,63,42,777,63,2014-08-01T19:40:00,1,20809615,185396
OK,53,50,777,53,2014-08-01T19:45:00,2,20810064,185396
OK,43,61,777,43,2014-08-01T19:50:00,1,20810513,185396
OK,43,61,777,43,2014-08-01T19:55:00,0,20810962,185396
OK,96,27,777,96,2014-08-01T22:00:00,0,20816691,185396
OK,96,27,777,96,2014-08-01T22:05:00,0,20817140,185396
OK,100,26,777,100,2014-08-01T22:10:00,1,20817462,185396
OK,100,26,777,100,2014-08-01T22:20:00,0,20818181,185396
OK,100,26,777,100,2014-08-01T22:25:00,0,20818497,185396
OK,105,25,777,105,2014-08-01T23:45:00,0,20822239,185396
OK,84,31,777,84,2014-08-02T00:00:00,0,20823130,185396
OK,67,39,777,67,2014-08-02T00:05:00,1,20823579,185396
OK,67,39,777,67,2014-08-02T00:10:00,0,20824028,185396
OK,67,39,777,67,2014-08-02T00:15:00,0,20824477,185396
OK,67,39,777,67,2014-08-02T00:20:00,0,20824926,185396
OK,121,21,777,121,2014-08-02T00:25:00,2,20825375,185396
OK,121,21,777,121,2014-08-02T00:30:00,2,20825824,185396
OK,121,21,777,121,2014-08-02T00:35:00,0,20826273,185396
OK,121,21,777,121,2014-08-02T00:40:00,0,20826722,185396
OK,121,21,777,121,2014-08-02T00:45:00,0,20827171,185396
OK,121,21,777,121,2014-08-02T00:50:00,0,20827620,185396
OK,121,21,777,121,2014-08-02T00:55:00,0,20828069,185396
OK,121,21,777,121,2014-08-02T01:00:00,0,20828518,185396
OK,121,21,777,121,2014-08-02T01:05:00,0,20828967,185396
OK,121,21,777,121,2014-08-02T01:10:00,0,20829416,185396
OK,121,21,777,121,2014-08-02T01:15:00,0,20829865,185396
OK,121,21,777,121,2014-08-02T01:20:00,0,20830314,185396
OK,121,21,777,121,2014-08-02T01:25:00,0,20830763,185396
OK,121,21,777,121,2014-08-02T01:30:00,0,20831212,185396
OK,121,21,777,121,2014-08-02T01:35:00,0,20831661,185396
OK,121,21,777,121,2014-08-02T01:40:00,0,20832110,185396
OK,121,21,777,121,2014-08-02T01:45:00,0,20832559,185396
OK,121,21,777,121,2014-08-02T01:50:00,0,20833008,185396
OK,121,21,777,121,2014-08-02T01:55:00,0,20833457,185396
OK,121,21,777,121,2014-08-02T02:00:00,0,20833906,185396
OK,121,21,777,121,2014-08-02T02:05:00,0,20834355,185396
OK,121,21,777,121,2014-08-02T02:10:00,0,20834804,185396
OK,121,21,777,121,2014-08-02T02:15:00,0,20835253,185396
OK,121,21,777,121,2014-08-02T02:20:00,0,20835702,185396
OK,89,29,777,89,2014-08-02T02:25:00,0,20836151,185396
OK,89,29,777,89,2014-08-02T02:30:00,0,20836600,185396
OK,89,29,777,89,2014-08-02T02:35:00,0,20837049,185396
OK,89,29,777,89,2014-08-02T02:40:00,0,20837498,185396
OK,89,29,777,89,2014-08-02T02:45:00,0,20837947,185396
OK,89,29,777,89,2014-08-02T02:50:00,0,20838396,185396
OK,89,29,777,89,2014-08-02T02:55:00,0,20838845,185396
OK,89,29,777,89,2014-08-02T03:00:00,0,20839294,185396
OK,89,29,777,89,2014-08-02T03:05:00,0,20839743,185396
OK,89,29,777,89,2014-08-02T03:10:00,0,20840192,185396
OK,89,29,777,89,2014-08-02T03:15:00,0,20840641,185396
OK,89,29,777,89,2014-08-02T03:20:00,0,20841090,185396
OK,89,29,777,89,2014-08-02T03:25:00,0,20841539,185396
OK,89,29,777,89,2014-08-02T03:30:00,0,20841988,185396
OK,89,29,777,89,2014-08-02T03:35:00,0,20842437,185396
OK,89,29,777,89,2014-08-02T03:40:00,0,20842886,185396
OK,89,29,777,89,2014-08-02T03:45:00,0,20843335,185396
OK,94,28,777,94,2014-08-02T03:50:00,1,20843784,185396
OK,92,28,777,92,2014-08-02T03:55:00,2,20844233,185396
OK,227,11,777,227,2014-08-02T04:10:00,1,20845142,185396
OK,227,11,777,227,2014-08-02T04:15:00,0,20845323,185396
OK,100,26,777,100,2014-08-02T04:20:00,1,20845679,185396
OK,100,26,777,100,2014-08-02T04:30:00,0,20846235,185396
OK,100,26,777,100,2014-08-02T04:35:00,0,20846602,185396
OK,100,26,777,100,2014-08-02T04:40:00,0,20846985,185396
OK,100,26,777,100,2014-08-02T04:45:00,0,20847244,185396
OK,100,26,777,100,2014-08-02T04:50:00,0,20847610,185396
OK,100,26,777,100,2014-08-02T05:20:00,0,20849381,185396
OK,82,32,777,82,2014-08-02T05:40:00,1,20850471,185396
OK,82,32,777,82,2014-08-02T05:50:00,0,20851130,185396
OK,82,32,777,82,2014-08-02T06:00:00,0,20851687,185396
OK,82,32,777,82,2014-08-02T06:05:00,0,20852136,185396
OK,82,32,777,82,2014-08-02T06:10:00,0,20852585,185396
OK,82,32,777,82,2014-08-02T06:15:00,0,20853034,185396
OK,82,32,777,82,2014-08-02T06:20:00,0,20853483,185396
OK,82,32,777,82,2014-08-02T06:25:00,0,20853932,185396
OK,82,32,777,82,2014-08-02T06:30:00,0,20854381,185396
OK,82,32,777,82,2014-08-02T06:35:00,0,20854830,185396
OK,97,27,777,97,2014-08-02T06:40:00,1,20855279,185396
OK,97,27,777,97,2014-08-02T06:45:00,1,20855728,185396
OK,97,27,777,97,2014-08-02T06:50:00,0,20856177,185396
OK,87,30,777,87,2014-08-02T06:55:00,1,20856626,185396
OK,87,30,777,87,2014-08-02T07:00:00,0,20857075,185396
OK,87,30,777,87,2014-08-02T07:05:00,0,20857524,185396
OK,87,30,777,87,2014-08-02T07:10:00,0,20857973,185396
OK,87,30,777,87,2014-08-02T07:15:00,0,20858422,185396
OK,192,13,777,192,2014-08-02T07:20:00,2,20858871,185396
OK,192,13,777,192,2014-08-02T07:25:00,3,20859320,185396
OK,97,27,777,97,2014-08-02T07:30:00,1,20859769,185396
OK,97,27,777,97,2014-08-02T07:35:00,0,20860218,185396
OK,72,36,777,72,2014-08-02T07:40:00,1,20860667,185396
OK,72,36,777,72,2014-08-02T07:45:00,1,20861116,185396
OK,89,29,777,89,2014-08-02T07:50:00,3,20861565,185396
OK,89,29,777,89,2014-08-02T07:55:00,3,20862014,185396
OK,83,32,777,83,2014-08-02T08:00:00,1,20862463,185396
OK,83,32,777,83,2014-08-02T08:05:00,1,20862912,185396
OK,87,30,777,87,2014-08-02T08:10:00,1,20863361,185396
OK,87,30,777,87,2014-08-02T08:15:00,1,20863810,185396
OK,87,30,777,87,2014-08-02T08:20:00,0,20864259,185396
OK,126,21,777,126,2014-08-02T08:25:00,2,20864708,185396
OK,97,27,777,97,2014-08-02T08:30:00,4,20865157,185396
OK,97,27,777,97,2014-08-02T08:35:00,2,20865606,185396
OK,100,26,777,100,2014-08-02T08:40:00,0,20866055,185396
OK,112,23,777,112,2014-08-02T08:45:00,1,20866504,185396
OK,112,23,777,112,2014-08-02T08:50:00,1,20866953,185396
OK,82,32,777,82,2014-08-02T08:55:00,2,20867402,185396
OK,80,33,777,80,2014-08-02T09:00:00,5,20867851,185396
OK,95,28,777,95,2014-08-02T09:05:00,2,20868300,185396
OK,95,28,777,95,2014-08-02T09:10:00,0,20868749,185396
OK,95,28,777,95,2014-08-02T09:15:00,0,20869198,185396
OK,164,16,777,164,2014-08-02T09:20:00,1,20869647,185396
OK,120,22,777,120,2014-08-02T09:25:00,3,20870096,185396
OK,148,17,777,148,2014-08-02T09:30:00,4,20870545,185396
OK,128,20,777,128,2014-08-02T09:35:00,4,20870994,185396
OK,123,21,777,123,2014-08-02T09:40:00,4,20871443,185396
OK,167,15,777,167,2014-08-02T09:45:00,3,20871892,185396
OK,89,29,777,89,2014-08-02T09:50:00,4,20872341,185396
OK,83,32,777,83,2014-08-02T09:55:00,3,20872790,185396
OK,140,19,777,140,2014-08-02T10:00:00,4,20873239,185396
OK,97,27,777,97,2014-08-02T10:05:00,2,20873688,185396
OK,79,33,777,79,2014-08-02T10:10:00,1,20874137,185396
OK,79,33,777,79,2014-08-02T10:15:00,1,20874586,185396
OK,105,25,777,105,2014-08-02T10:20:00,5,20875035,185396
OK,103,25,777,103,2014-08-02T10:25:00,6,20875484,185396
OK,88,30,777,88,2014-08-02T10:30:00,4,20875933,185396
OK,89,29,777,89,2014-08-02T10:35:00,6,20876382,185396
OK,106,25,777,106,2014-08-02T10:40:00,3,20876831,185396
OK,106,25,777,106,2014-08-02T10:45:00,0,20877280,185396
OK,206,12,777,206,2014-08-02T10:50:00,1,20877729,185396
OK,77,34,777,77,2014-08-02T10:55:00,1,20878178,185396
OK,98,27,777,98,2014-08-02T11:00:00,2,20878627,185396
OK,120,22,777,120,2014-08-02T11:05:00,1,20879076,185396
OK,93,28,777,93,2014-08-02T11:10:00,1,20879525,185396
OK,104,25,777,104,2014-08-02T11:15:00,2,20879974,185396
OK,116,22,777,116,2014-08-02T11:20:00,1,20880423,185396
OK,116,22,777,116,2014-08-02T11:25:00,0,20880872,185396
OK,85,31,777,85,2014-08-02T11:30:00,1,20881321,185396
OK,85,31,777,85,2014-08-02T11:35:00,0,20881770,185396
OK,85,31,777,85,2014-08-02T11:40:00,0,20882219,185396
OK,85,31,777,85,2014-08-02T11:45:00,0,20882668,185396
OK,85,31,777,85,2014-08-02T11:50:00,0,20883117,185396
OK,85,31,777,85,2014-08-02T11:55:00,0,20883566,185396
OK,103,25,777,103,2014-08-02T12:00:00,2,20884015,185396
OK,121,21,777,121,2014-08-02T12:05:00,5,20884464,185396
OK,70,38,777,70,2014-08-02T12:10:00,1,20884913,185396
OK,70,38,777,70,2014-08-02T12:15:00,0,20885362,185396
OK,70,38,777,70,2014-08-02T12:20:00,0,20885811,185396
OK,70,38,777,70,2014-08-02T12:25:00,0,20886260,185396
OK,82,32,777,82,2014-08-02T12:30:00,3,20886709,185396
OK,82,32,777,82,2014-08-02T12:35:00,3,20887158,185396
OK,140,19,777,140,2014-08-02T12:40:00,2,20887607,185396
OK,140,19,777,140,2014-08-02T12:45:00,2,20888056,185396
OK,175,15,777,175,2014-08-02T12:50:00,0,20888505,185396
OK,109,24,777,109,2014-08-02T12:55:00,1,20888954,185396
OK,109,24,777,109,2014-08-02T13:00:00,1,20889403,185396
OK,109,24,777,109,2014-08-02T13:05:00,0,20889852,185396
OK,110,24,777,110,2014-08-02T13:10:00,2,20890301,185396
OK,118,22,777,118,2014-08-02T13:15:00,3,20890750,185396
OK,105,25,777,105,2014-08-02T13:20:00,2,20891199,185396
OK,85,31,777,85,2014-08-02T13:25:00,3,20891648,185396
OK,84,31,777,84,2014-08-02T13:30:00,2,20892097,185396
OK,98,27,777,98,2014-08-02T13:35:00,2,20892546,185396
OK,98,27,777,98,2014-08-02T13:40:00,2,20892995,185396
OK,98,27,777,98,2014-08-02T13:45:00,0,20893444,185396
OK,81,32,777,81,2014-08-02T13:50:00,4,20893893,185396
OK,81,32,777,81,2014-08-02T13:55:00,6,20894342,185396
OK,89,29,777,89,2014-08-02T14:00:00,1,20894791,185396
OK,89,29,777,89,2014-08-02T14:05:00,0,20895240,185396
OK,89,29,777,89,2014-08-02T14:10:00,0,20895689,185396
OK,89,29,777,89,2014-08-02T14:15:00,0,20896138,185396
OK,99,26,777,99,2014-08-02T14:20:00,3,20896587,185396
OK,99,26,777,99,2014-08-02T14:25:00,3,20897036,185396
OK,99,26,777,99,2014-08-02T14:30:00,0,20897485,185396
OK,99,26,777,99,2014-08-02T14:35:00,0,20897934,185396
OK,87,30,777,87,2014-08-02T14:40:00,1,20898383,185396
OK,87,30,777,87,2014-08-02T14:45:00,1,20898832,185396
OK,100,26,777,100,2014-08-02T14:50:00,1,20899281,185396
OK,95,28,777,95,2014-08-02T14:55:00,2,20899730,185396
OK,90,29,777,90,2014-08-02T15:00:00,1,20900179,185396
OK,90,29,777,90,2014-08-02T15:05:00,0,20900628,185396
OK,90,29,777,90,2014-08-02T15:10:00,0,20901077,185396
OK,90,29,777,90,2014-08-02T15:15:00,0,20901526,185396
OK,90,29,777,90,2014-08-02T15:20:00,0,20901975,185396
OK,90,29,777,90,2014-08-02T15:25:00,0,20902424,185396
OK,88,30,777,88,2014-08-02T15:30:00,3,20902873,185396
OK,86,30,777,86,2014-08-02T15:35:00,4,20903322,185396
OK,95,28,777,95,2014-08-02T15:40:00,2,20903771,185396
OK,108,24,777,108,2014-08-02T15:45:00,1,20904220,185396
OK,108,24,777,108,2014-08-02T15:50:00,0,20904669,185396
OK,108,24,777,108,2014-08-02T15:55:00,0,20905118,185396
OK,85,31,777,85,2014-08-02T16:00:00,1,20905567,185396
OK,85,31,777,85,2014-08-02T16:05:00,2,20906016,185396
OK,85,31,777,85,2014-08-02T16:10:00,1,20906465,185396
OK,177,15,777,177,2014-08-02T16:15:00,3,20906914,185396
OK,176,15,777,176,2014-08-02T16:20:00,4,20907363,185396
OK,187,14,777,187,2014-08-02T16:25:00,1,20907812,185396
OK,187,14,777,187,2014-08-02T16:30:00,0,20908261,185396
OK,82,32,777,82,2014-08-02T16:35:00,1,20908710,185396
OK,82,32,777,82,2014-08-02T16:40:00,1,20909159,185396
OK,82,32,777,82,2014-08-02T16:45:00,0,20909608,185396
OK,187,14,777,187,2014-08-02T16:50:00,1,20910057,185396
OK,187,14,777,187,2014-08-02T16:55:00,1,20910506,185396
OK,187,14,777,187,2014-08-02T17:00:00,0,20910955,185396
OK,117,22,777,117,2014-08-02T17:05:00,1,20911404,185396
OK,117,22,777,117,2014-08-02T17:10:00,1,20911853,185396
OK,117,22,777,117,2014-08-02T17:15:00,0,20912302,185396
OK,80,33,777,80,2014-08-02T17:20:00,1,20912751,185396
OK,80,33,777,80,2014-08-02T17:25:00,0,20913200,185396
OK,80,33,777,80,2014-08-02T17:30:00,0,20913649,185396
OK,80,33,777,80,2014-08-02T17:35:00,0,20914098,185396
OK,80,33,777,80,2014-08-02T17:40:00,0,20914547,185396
OK,80,33,777,80,2014-08-02T17:45:00,0,20914996,185396
OK,80,33,777,80,2014-08-02T17:50:00,0,20915445,185396
OK,80,33,777,80,2014-08-02T17:55:00,0,20915894,185396
OK,105,25,777,105,2014-08-02T18:00:00,2,20916343,185396
OK,105,25,777,105,2014-08-02T18:05:00,2,20916792,185396
OK,105,25,777,105,2014-08-02T18:10:00,0,20917241,185396
OK,105,25,777,105,2014-08-02T18:15:00,0,20917690,185396
OK,85,31,777,85,2014-08-02T18:20:00,1,20918139,185396
OK,85,31,777,85,2014-08-02T18:25:00,0,20918588,185396
OK,85,31,777,85,2014-08-02T18:30:00,0,20919037,185396
OK,85,31,777,85,2014-08-02T18:35:00,0,20919486,185396
OK,117,22,777,117,2014-08-02T18:40:00,1,20919935,185396
OK,117,22,777,117,2014-08-02T18:45:00,0,20920384,185396
OK,105,25,777,105,2014-08-02T18:50:00,2,20920833,185396
OK,95,28,777,95,2014-08-02T18:55:00,1,20921282,185396
OK,95,28,777,95,2014-08-02T19:00:00,0,20921731,185396
OK,95,28,777,95,2014-08-02T19:05:00,0,20922180,185396
OK,87,30,777,87,2014-08-02T19:10:00,1,20922629,185396
OK,87,30,777,87,2014-08-02T19:15:00,1,20923078,185396
OK,87,30,777,87,2014-08-02T19:20:00,0,20923527,185396
OK,87,30,777,87,2014-08-02T19:25:00,0,20923976,185396
OK,87,30,777,87,2014-08-02T19:30:00,0,20924425,185396
OK,87,30,777,87,2014-08-02T19:35:00,0,20924874,185396
OK,87,30,777,87,2014-08-02T19:40:00,0,20925323,185396
OK,187,14,777,187,2014-08-02T19:45:00,1,20925772,185396
OK,82,32,777,82,2014-08-02T19:50:00,2,20926221,185396
OK,82,32,777,82,2014-08-02T19:55:00,2,20926670,185396
OK,82,32,777,82,2014-08-02T20:00:00,0,20927119,185396
OK,82,32,777,82,2014-08-02T20:05:00,0,20927568,185396
OK,82,32,777,82,2014-08-02T20:10:00,0,20928017,185396
OK,124,21,777,124,2014-08-02T20:15:00,1,20928466,185396
OK,200,13,777,200,2014-08-02T20:20:00,1,20928915,185396
OK,200,13,777,200,2014-08-02T20:25:00,0,20929364,185396
OK,200,13,777,200,2014-08-02T20:30:00,0,20929813,185396
OK,200,13,777,200,2014-08-02T20:35:00,0,20930262,185396
OK,200,13,777,200,2014-08-02T20:40:00,0,20930711,185396
OK,200,13,777,200,2014-08-02T20:45:00,0,20931160,185396
OK,200,13,777,200,2014-08-02T20:50:00,0,20931609,185396
OK,200,13,777,200,2014-08-02T20:55:00,0,20932058,185396
OK,90,29,777,90,2014-08-02T21:00:00,1,20932507,185396
OK,90,29,777,90,2014-08-02T21:05:00,0,20932956,185396
OK,90,29,777,90,2014-08-02T21:10:00,0,20933405,185396
OK,90,29,777,90,2014-08-02T21:15:00,0,20933854,185396
OK,90,29,777,90,2014-08-02T21:20:00,0,20934303,185396
OK,90,29,777,90,2014-08-02T21:25:00,0,20934752,185396
OK,90,29,777,90,2014-08-02T21:30:00,0,20935201,185396
OK,90,29,777,90,2014-08-02T21:35:00,0,20935650,185396
OK,90,29,777,90,2014-08-02T21:40:00,0,20936099,185396
OK,66,40,777,66,2014-08-02T21:45:00,1,20936548,185396
OK,56,47,777,56,2014-08-02T21:50:00,1,20936997,185396
OK,56,47,777,56,2014-08-02T21:55:00,0,20937446,185396
OK,56,47,777,56,2014-08-02T22:00:00,0,20937895,185396
OK,56,47,777,56,2014-08-02T22:05:00,0,20938344,185396
OK,99,26,777,99,2014-08-02T22:10:00,1,20938793,185396
OK,99,26,777,99,2014-08-02T22:15:00,1,20939242,185396
OK,99,26,777,99,2014-08-02T22:20:00,0,20939691,185396
OK,99,26,777,99,2014-08-02T22:25:00,0,20940140,185396
OK,99,26,777,99,2014-08-02T22:30:00,0,20940589,185396
OK,99,26,777,99,2014-08-02T22:35:00,0,20941038,185396
OK,99,26,777,99,2014-08-02T22:40:00,0,20941487,185396
OK,99,26,777,99,2014-08-02T22:45:00,0,20941936,185396
OK,99,26,777,99,2014-08-02T22:50:00,0,20942385,185396
OK,99,26,777,99,2014-08-02T22:55:00,0,20942834,185396
OK,99,26,777,99,2014-08-02T23:00:00,0,20943283,185396
OK,99,26,777,99,2014-08-02T23:10:00,0,20943732,185396
OK,99,26,777,99,2014-08-02T23:15:00,0,20944181,185396
OK,99,26,777,99,2014-08-02T23:20:00,0,20944630,185396
OK,99,26,777,99,2014-08-02T23:25:00,0,20945079,185396
OK,99,26,777,99,2014-08-02T23:30:00,0,20945528,185396
OK,63,42,777,63,2014-08-02T23:35:00,1,20945977,185396
OK,73,36,777,73,2014-08-02T23:40:00,2,20946426,185396
OK,83,32,777,83,2014-08-02T23:45:00,0,20946875,185396
OK,83,32,777,83,2014-08-02T23:50:00,0,20947324,185396
OK,83,32,777,83,2014-08-02T23:55:00,0,20947773,185396
OK,83,32,777,83,2014-08-03T00:00:00,0,20948222,185396
OK,83,32,777,83,2014-08-03T00:05:00,0,20948671,185396